Regional Weather Roundup
Issued by NWS

Home | Current Version | Previous Version | Graphics & Text | Print | Product List | Glossary On
Versions: 1 2 3 4 5 6 7 8 9 10 11 12 13 14 15 16 17 18 19 20 21 22 23 24 25 26 27 28 29 30 31 32 33 34 35 36 37 38 39 40 41 42 43 44 45 46 47 48 49 50
000
ASUS43 KDTX 210710
RWRMI
MICHIGAN HOURLY REGIONAL WEATHER ROUNDUP
NATIONAL WEATHER SERVICE DETROIT/PONTIAC MI
300 AM EDT SAT APR 21 2018

NOTE: "FAIR" INDICATES FEW OR NO CLOUDS BELOW 12,000 FEET WITH NO
SIGNIFICANT WEATHER AND/OR OBSTRUCTION TO VISIBILITY.

MIZ047>049-052>055-059>063-066>070-074>076-081>083-210800-
SOUTHEAST LOWER MICHIGAN

CITY           SKY/WX    TMP DP  RH WIND       PRES   REMARKS
ADRIAN         FAIR      32  27  81 N3        30.46S
ALMA           FAIR      35  28  75 CALM      30.46R
ANN ARBOR      FAIR      30  26  85 CALM      30.45F
BAD AXE        FAIR      31  23  72 CALM      30.46F
CARO           FAIR      29  24  82 CALM      30.46F
DETROIT CITY   FAIR      36  24  62 CALM      30.47S
DETROIT        FAIR      38  28  67 CALM      30.46F
FLINT          FAIR      36  27  69 CALM      30.47R
GROSSE ILE     FAIR      33  29  87 CALM      30.46S
HILLSDALE      FAIR      37  23  56 S5        30.44S WCI  34
HOWELL         FAIR      36  28  73 CALM      30.45S

CITY           SKY/WX    TMP DP  RH WIND       PRES   REMARKS
JACKSON        FAIR      35  26  69 CALM      30.45S
LAMBERTVILLE   FAIR      35  28  73 CALM      30.45S
LANSING        FAIR      42  24  49 CALM      30.45F
LAPEER         FAIR      29  26  86 CALM      30.47S
MASON          FAIR      35  25  65 CALM      30.45F
MONROE         FAIR      32  30  93 N5        30.45S WCI  27
MT. CLEMENS    FAIR      33  27  81 CALM        N/A
PONTIAC        FAIR      33  26  75 CALM      30.45S
PORT HOPE        N/A     32  21  64 SW6       30.45S WCI  26
PORT HURON     FAIR      27  23  86 CALM      30.47F
TRI CITIES     FAIR      36  28  73 E7        30.46F WCI  30
MIDLAND        FAIR      30  28  90 CALM      30.45F
TROY           FAIR      37  22  56 CALM      30.48S
SAGINAW HB     FAIR      34  27  75 SE5       30.46F WCI  30
$$
MIZ043>046-050>051-056>058-064>065-071>073-077>080-210800-
SOUTHWEST LOWER MICHIGAN

CITY           SKY/WX    TMP DP  RH WIND       PRES   REMARKS
BATTLE CREEK   FAIR      36  23  59 CALM      30.44F
BENTON HARBOR  FAIR      29  22  75 CALM      30.44F
BIG RAPIDS     FAIR      29  19  67 CALM      30.44F
COLDWATER      FAIR      36  30  81 E5        30.44F WCI  32
FREMONT        FAIR      34  24  66 CALM      30.44F
HOLLAND        FAIR      32  26  78 CALM      30.45F
GRAND RAPIDS   FAIR      34  22  61 CALM      30.44F
IONIA          FAIR      37  23  55 CALM      30.44S
KALAMAZOO      FAIR      36  22  56 CALM      30.45S
LUDINGTON      FAIR      26  24  89 CALM      30.45S
MARSHALL       FAIR      34  27  76 CALM      30.44F
MOUNT PLEASANT FAIR      37  26  62 CALM      30.45S
MUSKEGON       FAIR      31  20  63 CALM      30.45F
SOUTH HAVEN    FAIR      31  20  63 CALM      30.44F
$$
MIZ016>042-210800-
NORTHERN LOWER MICHIGAN

CITY           SKY/WX    TMP DP  RH WIND       PRES   REMARKS
ALPENA         FAIR      25  21  85 CALM      30.46F
BEAVER ISLAND  FAIR      31  25  79 CALM      30.43F
BELLAIRE       FAIR      26  23  86 CALM      30.46F
CADILLAC       FAIR      25  21  84 CALM      30.42F
CHARLEVOIX     FAIR      30  22  72 E3        30.47F
FRANKFORT      FAIR      29  21  73 CALM      30.45F
GAYLORD        FAIR      27  19  72 CALM      30.43F
GRAYLING       FAIR      24  20  84 CALM      30.44F
HARBOR SPRINGS FAIR      31  20  65 CALM      30.44F
HOUGHTON LAKE  FAIR      27  23  85 CALM      30.45F
MANISTEE       FAIR      25  21  85 E3        30.45F
OSCODA         FAIR      24  18  78 SW6       30.45F WCI  17
PELLSTON       FAIR      26  21  81 CALM      30.44F
ROGERS CITY    FAIR      29  17  62 CALM      30.46S
TRAVERSE CITY  FAIR      31  21  66 CALM      30.44F
$$
MIZ007>008-015-210800-
EASTERN UPPER MICHIGAN

CITY           SKY/WX    TMP DP  RH WIND       PRES   REMARKS
KINROSS        FAIR      32  14  47 W3        30.44S
MACKINAC ISLAN FAIR      33  20  58 W6        30.44S WCI  28
NEWBERRY       FAIR      31  27  83 CALM      30.42S
S. S. MARIE    FAIR      32  20  61 CALM      30.43S
MUNISING         N/A     32  24  72 S7        30.40F WCI  26
$$
MIZ004>006-011>014-085-210800-
CENTRAL UPPER MICHIGAN

CITY           SKY/WX    TMP DP  RH WIND       PRES   REMARKS
MANISTIQUE     FAIR      27  26  95 S10       30.42F WCI  17
ESCANABA       FAIR      29  25  85 CALM      30.41F
MENOMINEE      FAIR      36  21  54 SW5       30.43F WCI  32
SAWYER-GWINN   FAIR      29  19  66 CALM      30.39F
$$
MIZ001>003-009>011-084-210800-
WESTERN UPPER MICHIGAN

CITY           SKY/WX    TMP DP  RH WIND       PRES   REMARKS
IRON MOUNTAIN  FAIR      29  23  78 NW5       30.38F WCI  24
HOUGHTON       FAIR      33  15  47 CALM      30.38F
COPPER HARBOR    N/A     35  16  45 SW8       30.39F WCI  29
IRONWOOD       FAIR      28  22  78 CALM      30.40F
$$

ABBREVIATIONS USED IN REMARKS
   TC - TEMPERATURE IN CELSIUS
  WCI - WIND CHILL INDEX
   HX - HEAT INDEX
  VSB - VISIBILITY




USA.gov is the U.S. government's official web portal to all federal, state and local government web resources and services.